EWG9H EDDH-LSZH

Flight info

Callsign EWG9H
Flight time 1h 4m
Altitude 33000
Route IDEKO7G/33 IDEKO N850 ROBEG DCT SWALM DCT OMOGI T721 RILAX
Aircraft A320/M-SDE2E3FGIJ1RWXYZ/HB1

Departure

Time 2026-04-25 21:44
Airport Hamburg Helmut Schmidt Airport (EDDH)

Arrival

Time 2026-04-25 22:49
Airport Zürich Airport (LSZH)
Time Latitude Longitude Altitude Speed Heading
2026-04-25 21:03 53.62892 10.00214 51 ft 0 kts 122°
2026-04-25 21:32 53.62897 10.00200 26 ft 2 kts 121°
2026-04-25 21:32 53.62905 10.00177 49 ft 2 kts 122°
2026-04-25 21:33 53.62914 10.00154 57 ft 2 kts 122°
2026-04-25 21:33 53.62923 10.00130 46 ft 2 kts 122°
2026-04-25 21:33 53.62932 10.00107 48 ft 2 kts 122°
2026-04-25 21:33 53.62940 10.00083 44 ft 2 kts 141°
2026-04-25 21:34 53.62955 10.00073 48 ft 2 kts 185°
2026-04-25 21:34 53.62971 10.00078 49 ft 2 kts 206°
2026-04-25 21:34 53.62985 10.00092 47 ft 2 kts 212°
2026-04-25 21:34 53.62988 10.00094 48 ft 0 kts 211°
2026-04-25 21:38 53.62969 10.00076 49 ft 6 kts 211°
2026-04-25 21:38 53.62934 10.00032 49 ft 6 kts 228°
2026-04-25 21:38 53.62917 9.99980 49 ft 5 kts 242°
2026-04-25 21:38 53.62904 9.99939 48 ft 3 kts 243°
2026-04-25 21:39 53.62895 9.99911 50 ft 2 kts 243°
2026-04-25 21:39 53.62895 9.99909 50 ft 0 kts 243°
2026-04-25 21:41 53.62881 9.99863 50 ft 7 kts 243°
2026-04-25 21:41 53.62855 9.99775 48 ft 9 kts 250°
2026-04-25 21:42 53.62883 9.99729 49 ft 0 kts 333°
2026-04-25 21:43 53.62945 9.99675 49 ft 40 kts 332°
2026-04-25 21:43 53.63404 9.99279 51 ft 105 kts 333°
2026-04-25 21:44 53.64213 9.98570 52 ft 154 kts 329°
2026-04-25 21:44 53.65179 9.97715 654 ft 154 kts 330°
2026-04-25 21:44 53.67059 9.96134 2268 ft 148 kts 333°
2026-04-25 21:45 53.67980 9.95356 2980 ft 147 kts 334°
2026-04-25 21:45 53.68600 9.94827 3410 ft 151 kts 335°
2026-04-25 21:45 53.69971 9.93670 3808 ft 180 kts 335°
2026-04-25 21:45 53.71083 9.92518 4241 ft 197 kts 314°
2026-04-25 21:46 53.71533 9.90242 4771 ft 225 kts 276°
2026-04-25 21:46 53.71142 9.87470 5173 ft 258 kts 257°
2026-04-25 21:46 53.70538 9.84552 5937 ft 266 kts 258°
2026-04-25 21:46 53.69938 9.81600 6919 ft 266 kts 259°
2026-04-25 21:47 53.69344 9.78645 7853 ft 266 kts 259°
2026-04-25 21:47 53.68754 9.75677 8774 ft 267 kts 260°
2026-04-25 21:47 53.68165 9.72693 9697 ft 269 kts 261°
2026-04-25 21:47 53.67575 9.69681 10485 ft 275 kts 261°
2026-04-25 21:48 53.66961 9.66484 10758 ft 299 kts 261°
2026-04-25 21:48 53.66141 9.63111 11175 ft 325 kts 248°
2026-04-25 21:48 53.64659 9.60075 11841 ft 349 kts 230°
2026-04-25 21:48 53.62545 9.57833 12535 ft 372 kts 210°
2026-04-25 21:49 53.59944 9.56805 13181 ft 390 kts 192°
2026-04-25 21:49 53.57254 9.56287 13938 ft 393 kts 192°
2026-04-25 21:49 53.54520 9.55773 14563 ft 397 kts 192°
2026-04-25 21:49 53.51764 9.55255 15200 ft 401 kts 192°
2026-04-25 21:50 53.48984 9.54723 15850 ft 404 kts 192°
2026-04-25 21:50 53.46184 9.54178 16500 ft 407 kts 193°
2026-04-25 21:50 53.43360 9.53624 17154 ft 410 kts 193°
2026-04-25 21:50 53.41495 9.53257 17572 ft 412 kts 193°
2026-04-25 21:51 53.37656 9.52502 18414 ft 416 kts 193°
2026-04-25 21:51 53.34774 9.51931 18949 ft 418 kts 193°
2026-04-25 21:51 53.31878 9.51361 19535 ft 420 kts 192°
2026-04-25 21:51 53.28964 9.50789 20081 ft 423 kts 192°
2026-04-25 21:52 53.26036 9.50216 20609 ft 426 kts 192°
2026-04-25 21:52 53.23084 9.49640 21120 ft 429 kts 192°
2026-04-25 21:52 53.20150 9.49067 21613 ft 432 kts 192°
2026-04-25 21:52 53.17157 9.48483 22110 ft 435 kts 192°
2026-04-25 21:53 53.14136 9.47917 22610 ft 439 kts 191°
2026-04-25 21:53 53.11083 9.47458 23096 ft 443 kts 190°
2026-04-25 21:53 53.08000 9.47091 23570 ft 446 kts 189°
2026-04-25 21:53 53.04889 9.46771 23995 ft 449 kts 188°
2026-04-25 21:54 53.01759 9.46458 24393 ft 452 kts 189°
2026-04-25 21:54 52.98617 9.46129 24797 ft 454 kts 189°
2026-04-25 21:54 52.95457 9.45779 25196 ft 456 kts 189°
2026-04-25 21:54 52.92288 9.45412 25588 ft 458 kts 189°
2026-04-25 21:55 52.89104 9.45034 25976 ft 460 kts 189°
2026-04-25 21:55 52.85908 9.44655 26351 ft 461 kts 189°
2026-04-25 21:55 52.82706 9.44276 26791 ft 462 kts 189°
2026-04-25 21:55 52.79501 9.43895 27188 ft 463 kts 189°
2026-04-25 21:56 52.76276 9.43508 27562 ft 465 kts 189°
2026-04-25 21:56 52.74134 9.43250 27800 ft 467 kts 189°
2026-04-25 21:56 52.69792 9.42735 28294 ft 469 kts 188°
2026-04-25 21:56 52.66527 9.42356 28651 ft 472 kts 188°
2026-04-25 21:57 52.63246 9.41975 28983 ft 474 kts 188°
2026-04-25 21:57 52.59953 9.41594 29377 ft 474 kts 188°
2026-04-25 21:57 52.56659 9.41212 29749 ft 476 kts 188°
2026-04-25 21:57 52.53349 9.40828 30084 ft 477 kts 188°
2026-04-25 21:58 52.50032 9.40440 30374 ft 479 kts 188°
2026-04-25 21:58 52.46701 9.40051 30641 ft 481 kts 188°
2026-04-25 21:58 52.43357 9.39669 30904 ft 483 kts 188°
2026-04-25 21:58 52.39997 9.39288 31161 ft 484 kts 188°
2026-04-25 21:59 52.36633 9.38902 31415 ft 485 kts 188°
2026-04-25 21:59 52.33268 9.38515 31672 ft 484 kts 188°
2026-04-25 21:59 52.29916 9.38128 31926 ft 482 kts 188°
2026-04-25 22:00 52.23231 9.37354 32435 ft 482 kts 187°
2026-04-25 22:00 52.19877 9.36972 32697 ft 484 kts 187°
2026-04-25 22:00 52.16525 9.36590 32964 ft 482 kts 187°
2026-04-25 22:00 52.13229 9.36213 33132 ft 480 kts 187°
2026-04-25 22:01 52.06672 9.35469 33193 ft 465 kts 187°
2026-04-25 22:01 52.01283 9.34855 33193 ft 463 kts 187°
2026-04-25 22:02 51.93825 9.33992 33193 ft 462 kts 187°
2026-04-25 22:02 51.87414 9.33266 33194 ft 460 kts 187°
2026-04-25 22:03 51.81049 9.32561 33192 ft 458 kts 187°
2026-04-25 22:03 51.74684 9.31856 33191 ft 458 kts 187°
2026-04-25 22:04 51.68329 9.31132 33187 ft 458 kts 187°
2026-04-25 22:04 51.61974 9.30425 33171 ft 458 kts 187°
2026-04-25 22:05 51.55628 9.29725 33172 ft 457 kts 187°
2026-04-25 22:05 51.49281 9.29016 33166 ft 457 kts 187°
2026-04-25 22:06 51.42943 9.28311 33149 ft 456 kts 186°
2026-04-25 22:06 51.36614 9.27616 33157 ft 456 kts 186°
2026-04-25 22:07 51.31357 9.27035 33158 ft 455 kts 186°
2026-04-25 22:07 51.23976 9.26229 33153 ft 455 kts 186°
2026-04-25 22:08 51.17667 9.25534 33130 ft 454 kts 187°
2026-04-25 22:08 51.11361 9.24836 33143 ft 454 kts 187°
2026-04-25 22:09 51.06126 9.24264 33150 ft 454 kts 187°
2026-04-25 22:09 50.99829 9.23578 33155 ft 454 kts 187°
2026-04-25 22:10 50.93531 9.22900 33153 ft 453 kts 187°
2026-04-25 22:10 50.87241 9.22231 33146 ft 453 kts 187°
2026-04-25 22:11 50.80965 9.21561 33151 ft 452 kts 187°
2026-04-25 22:11 50.74687 9.20877 33163 ft 452 kts 187°
2026-04-25 22:12 50.68426 9.20064 33160 ft 451 kts 189°
2026-04-25 22:12 50.63266 9.19005 33159 ft 450 kts 191°
2026-04-25 22:13 50.56075 9.17334 33160 ft 449 kts 191°
2026-04-25 22:13 50.49879 9.15978 33145 ft 449 kts 191°
2026-04-25 22:14 50.43678 9.14711 33149 ft 449 kts 191°
2026-04-25 22:14 50.37695 9.13513 33148 ft 449 kts 191°
2026-04-25 22:15 50.31497 9.12255 33159 ft 449 kts 191°
2026-04-25 22:16 50.22209 9.10347 33159 ft 448 kts 191°
2026-04-25 22:16 50.16035 9.09082 33162 ft 447 kts 191°
2026-04-25 22:17 50.09868 9.07827 33165 ft 447 kts 191°
2026-04-25 22:17 50.03704 9.06577 33158 ft 446 kts 191°
2026-04-25 22:18 49.97549 9.05332 33158 ft 446 kts 191°
2026-04-25 22:18 49.91394 9.04090 33154 ft 446 kts 191°
2026-04-25 22:19 49.85243 9.02857 33156 ft 446 kts 191°
2026-04-25 22:19 49.79087 9.01623 33149 ft 446 kts 191°
2026-04-25 22:20 49.72927 9.00388 33153 ft 446 kts 191°
2026-04-25 22:20 49.66769 8.99156 33154 ft 446 kts 191°
2026-04-25 22:21 49.60633 8.97733 33145 ft 445 kts 194°
2026-04-25 22:21 49.54586 8.95993 33155 ft 445 kts 195°
2026-04-25 22:22 49.48502 8.94222 33159 ft 445 kts 194°
2026-04-25 22:22 49.42404 8.92526 33163 ft 445 kts 194°
2026-04-25 22:23 49.36302 8.90879 33154 ft 445 kts 194°
2026-04-25 22:23 49.30203 8.89232 33164 ft 445 kts 194°
2026-04-25 22:24 49.24107 8.87582 33160 ft 445 kts 194°
2026-04-25 22:24 49.18016 8.85925 33141 ft 444 kts 194°
2026-04-25 22:25 49.11933 8.84257 33150 ft 444 kts 194°
2026-04-25 22:25 49.05850 8.82596 33160 ft 444 kts 194°
2026-04-25 22:25 49.02804 8.81765 32930 ft 443 kts 194°
2026-04-25 22:26 48.99779 8.80939 32663 ft 441 kts 194°
2026-04-25 22:26 48.96771 8.80119 32168 ft 437 kts 194°
2026-04-25 22:26 48.93783 8.79310 31591 ft 436 kts 194°
2026-04-25 22:26 48.90804 8.78514 31042 ft 433 kts 193°
2026-04-25 22:27 48.87843 8.77727 30522 ft 431 kts 193°
2026-04-25 22:27 48.84914 8.76946 30254 ft 422 kts 193°
2026-04-25 22:27 48.82038 8.76177 29719 ft 419 kts 194°
2026-04-25 22:27 48.79181 8.75408 29206 ft 415 kts 194°
2026-04-25 22:28 48.76352 8.74644 28696 ft 412 kts 194°
2026-04-25 22:28 48.73547 8.73884 28166 ft 406 kts 192°
2026-04-25 22:28 48.70785 8.73137 27729 ft 401 kts 192°
2026-04-25 22:28 48.68051 8.72404 27309 ft 398 kts 193°
2026-04-25 22:29 48.65326 8.71675 26790 ft 396 kts 193°
2026-04-25 22:29 48.62620 8.70953 26344 ft 393 kts 193°
2026-04-25 22:29 48.59931 8.70244 25890 ft 391 kts 193°
2026-04-25 22:30 48.54595 8.68842 24981 ft 387 kts 193°
2026-04-25 22:30 48.51948 8.68140 24516 ft 386 kts 193°
2026-04-25 22:30 48.49305 8.67438 24051 ft 385 kts 193°
2026-04-25 22:30 48.47558 8.66974 23727 ft 385 kts 193°
2026-04-25 22:31 48.44039 8.66039 23035 ft 383 kts 193°
2026-04-25 22:31 48.41421 8.65350 22550 ft 381 kts 193°
2026-04-25 22:31 48.38820 8.64667 22073 ft 379 kts 193°
2026-04-25 22:31 48.36232 8.63963 21620 ft 376 kts 193°
2026-04-25 22:32 48.33704 8.63217 21170 ft 374 kts 194°
2026-04-25 22:32 48.31164 8.62434 20726 ft 372 kts 194°
2026-04-25 22:32 48.28633 8.61649 20271 ft 371 kts 194°
2026-04-25 22:32 48.26110 8.60869 19818 ft 369 kts 193°
2026-04-25 22:33 48.23594 8.60099 19380 ft 368 kts 193°
2026-04-25 22:33 48.21084 8.59342 18939 ft 367 kts 193°
2026-04-25 22:33 48.18585 8.58594 18486 ft 366 kts 193°
2026-04-25 22:33 48.16097 8.57846 18038 ft 363 kts 193°
2026-04-25 22:34 48.13626 8.57102 17592 ft 361 kts 193°
2026-04-25 22:34 48.11176 8.56368 17192 ft 357 kts 193°
2026-04-25 22:34 48.08749 8.55647 16796 ft 354 kts 193°
2026-04-25 22:34 48.06343 8.54932 16388 ft 352 kts 193°
2026-04-25 22:35 48.03948 8.54220 15987 ft 350 kts 193°
2026-04-25 22:35 48.01566 8.53516 15585 ft 348 kts 193°
2026-04-25 22:35 47.99198 8.52817 15196 ft 346 kts 193°
2026-04-25 22:35 47.96830 8.52156 14697 ft 348 kts 188°
2026-04-25 22:36 47.94398 8.52427 14149 ft 354 kts 165°
2026-04-25 22:36 47.92130 8.53834 13702 ft 353 kts 149°
2026-04-25 22:36 47.90135 8.55942 13264 ft 351 kts 142°
2026-04-25 22:36 47.88193 8.58117 12826 ft 348 kts 143°
2026-04-25 22:37 47.86243 8.60236 12419 ft 345 kts 144°
2026-04-25 22:37 47.84302 8.62316 12001 ft 343 kts 144°
2026-04-25 22:37 47.82374 8.64382 11587 ft 340 kts 144°
2026-04-25 22:37 47.80465 8.66435 11178 ft 337 kts 144°
2026-04-25 22:38 47.78572 8.68477 10762 ft 335 kts 144°
2026-04-25 22:38 47.76695 8.70508 10359 ft 332 kts 144°
2026-04-25 22:38 47.74860 8.72497 10210 ft 321 kts 144°
2026-04-25 22:38 47.73088 8.74417 10087 ft 309 kts 144°
2026-04-25 22:39 47.71371 8.76275 9837 ft 303 kts 144°
2026-04-25 22:39 47.69678 8.78105 9307 ft 300 kts 144°
2026-04-25 22:39 47.68007 8.79914 8877 ft 296 kts 144°
2026-04-25 22:39 47.66362 8.81693 8472 ft 295 kts 144°
2026-04-25 22:40 47.64715 8.83467 8178 ft 290 kts 144°
2026-04-25 22:40 47.63096 8.85206 7850 ft 286 kts 145°
2026-04-25 22:40 47.61494 8.86938 7494 ft 284 kts 145°
2026-04-25 22:40 47.59909 8.88655 7150 ft 281 kts 145°
2026-04-25 22:41 47.58347 8.90348 6906 ft 275 kts 145°
2026-04-25 22:41 47.56825 8.92002 6663 ft 268 kts 145°
2026-04-25 22:41 47.55216 8.93262 6410 ft 259 kts 168°
2026-04-25 22:41 47.53455 8.93458 6151 ft 251 kts 182°
2026-04-25 22:42 47.51733 8.93364 5900 ft 245 kts 184°
2026-04-25 22:42 47.50050 8.93231 5648 ft 240 kts 184°
2026-04-25 22:42 47.48394 8.93084 5397 ft 236 kts 184°
2026-04-25 22:42 47.46763 8.92919 5151 ft 233 kts 185°
2026-04-25 22:43 47.45230 8.92290 5004 ft 226 kts 208°
2026-04-25 22:43 47.44072 8.90799 4996 ft 221 kts 235°
2026-04-25 22:43 47.43485 8.88750 4997 ft 213 kts 262°
2026-04-25 22:43 47.43515 8.86630 5006 ft 207 kts 276°
2026-04-25 22:44 47.43676 8.84518 5007 ft 207 kts 276°
2026-04-25 22:44 47.43826 8.82488 5025 ft 190 kts 276°
2026-04-25 22:44 47.43963 8.80628 4983 ft 176 kts 276°
2026-04-25 22:44 47.44095 8.78828 4689 ft 175 kts 276°
2026-04-25 22:45 47.44223 8.77063 4419 ft 170 kts 277°
2026-04-25 22:45 47.44348 8.75349 4174 ft 166 kts 278°
2026-04-25 22:45 47.44470 8.73679 3924 ft 162 kts 278°
2026-04-25 22:45 47.44588 8.72045 3704 ft 158 kts 278°
2026-04-25 22:46 47.44699 8.70470 3467 ft 153 kts 279°
2026-04-25 22:46 47.44810 8.68919 3233 ft 151 kts 279°
2026-04-25 22:46 47.44917 8.67384 2996 ft 149 kts 278°
2026-04-25 22:46 47.45023 8.65862 2748 ft 149 kts 278°
2026-04-25 22:47 47.45130 8.64354 2535 ft 146 kts 278°
2026-04-25 22:47 47.45241 8.62865 2330 ft 145 kts 278°
2026-04-25 22:47 47.45350 8.61392 2101 ft 143 kts 277°
2026-04-25 22:47 47.45452 8.59938 1890 ft 141 kts 276°
2026-04-25 22:48 47.45554 8.58508 1675 ft 140 kts 276°
2026-04-25 22:48 47.45656 8.57075 1464 ft 140 kts 277°
2026-04-25 22:48 47.45753 8.55724 1398 ft 118 kts 275°
2026-04-25 22:48 47.45823 8.54763 1402 ft 62 kts 276°
2026-04-25 22:49 47.45778 8.54344 1403 ft 24 kts 235°
2026-04-25 22:49 47.45698 8.54203 1397 ft 18 kts 193°
2026-04-25 22:49 47.45609 8.54297 1395 ft 17 kts 111°
2026-04-25 22:49 47.45570 8.54469 1396 ft 18 kts 108°
2026-04-25 22:50 47.45531 8.54646 1405 ft 18 kts 108°
2026-04-25 22:50 47.45499 8.54790 1406 ft 14 kts 108°
2026-04-25 22:50 47.45469 8.54921 1401 ft 13 kts 109°
2026-04-25 22:50 47.45440 8.55042 1405 ft 12 kts 109°
2026-04-25 22:51 47.45404 8.55193 1404 ft 19 kts 110°
2026-04-25 22:51 47.45360 8.55336 1404 ft 11 kts 119°
2026-04-25 22:51 47.45318 8.55449 1401 ft 12 kts 119°
2026-04-25 22:51 47.45290 8.55521 1403 ft 7 kts 119°
2026-04-25 22:52 47.45275 8.55579 1397 ft 6 kts 99°
2026-04-25 22:52 47.45276 8.55628 1400 ft 5 kts 62°
2026-04-25 22:52 47.45314 8.55641 1402 ft 3 kts
2026-04-25 22:52 47.45327 8.55643 1402 ft 2 kts
2026-04-25 22:53 47.45344 8.55646 1399 ft 1 kts
2026-04-25 22:53 47.45348 8.55646 1401 ft 0 kts
2026-04-25 22:53 47.45351 8.55647 1401 ft 1 kts
2026-04-25 22:53 47.45353 8.55647 1397 ft 0 kts